| time (UTC) | temp F | wind direction | speed MPH | gust MPH | rain 1hr in | rain 24hr in | rain mn in | humidity % | barometer mb |
| 20260504050525 | 53 | 273 | 0.0 | 0.0 | 0.00 | 0.43 | 0.00 | 97 | 1011.8 |
| 20260504045526 | 53 | 273 | 0.0 | 0.0 | 0.00 | 0.43 | 0.00 | 96 | 1011.8 |
| 20260504044527 | 53 | 274 | 0.0 | 0.0 | 0.00 | 0.43 | 0.00 | 96 | 1011.8 |
| 20260504043524 | 53 | 274 | 0.0 | 2.0 | 0.00 | 0.43 | 0.00 | 96 | 1011.9 |
| 20260504042521 | 53 | 274 | 0.0 | 2.0 | 0.00 | 0.43 | 0.00 | 96 | 1011.8 |
| 20260504041521 | 53 | 274 | 0.0 | 2.0 | 0.00 | 0.43 | 0.00 | 96 | 1011.7 |
| 20260504040514 | 54 | 274 | 1.0 | 3.0 | 0.00 | 0.43 | 0.00 | 96 | 1011.7 |
| 20260504035519 | 54 | 274 | 2.0 | 4.0 | 0.00 | 0.43 | 0.00 | 96 | 1011.7 |
| 20260504034523 | 54 | 292 | 2.0 | 6.0 | 0.00 | 0.43 | 0.00 | 97 | 1011.7 |
| 20260504034453 | 55 | 273 | 1.0 | 5.0 | 0.00 | 0.43 | 0.00 | 97 | 1011.8 |
| 20260504032517 | 55 | 277 | 1.0 | 3.0 | 0.00 | 0.43 | 0.00 | 97 | 1011.8 |
| 20260504031516 | 55 | 277 | 2.0 | 4.0 | 0.00 | 0.43 | 0.00 | 97 | 1011.8 |
| 20260504030513 | 55 | 294 | 1.0 | 4.0 | 0.00 | 0.43 | 0.00 | 97 | 1011.6 |
| 20260504025509 | 55 | 298 | 2.0 | 7.0 | 0.00 | 0.43 | 0.00 | 97 | 1011.4 |
| 20260504024507 | 55 | 262 | 2.0 | 4.0 | 0.00 | 0.43 | 0.00 | 97 | 1011.4 |
| 20260504023522 | 56 | 262 | 1.0 | 3.0 | 0.00 | 0.43 | 0.00 | 97 | 1011.3 |
| 20260504022513 | 56 | 262 | 1.0 | 3.0 | 0.00 | 0.43 | 0.00 | 97 | 1011.4 |
| 20260504021511 | 56 | 262 | 2.0 | 3.0 | 0.00 | 0.43 | 0.00 | 97 | 1011.4 |
| 20260504020506 | 56 | 262 | 1.0 | 3.0 | 0.00 | 0.43 | 0.00 | 97 | 1011.4 |
| 20260504015502 | 56 | 262 | 2.0 | 4.0 | 0.00 | 0.43 | 0.00 | 97 | 1011.4 |
| 20260504014505 | 56 | 230 | 1.0 | 3.0 | 0.00 | 0.43 | 0.00 | 97 | 1011.4 |
| 20260504013505 | 56 | 230 | 0.0 | 2.0 | 0.00 | 0.43 | 0.00 | 97 | 1011.2 |
| 20260504012507 | 56 | 230 | 0.0 | 1.0 | 0.00 | 0.43 | 0.00 | 97 | 1011.3 |
| 20260504011504 | 56 | 230 | 0.0 | 1.0 | 0.00 | 0.43 | 0.00 | 97 | 1011.3 |
| 20260504010509 | 56 | 230 | 0.0 | 0.0 | 0.00 | 0.43 | 0.00 | 97 | 1011.3 |
| 20260504005504 | 56 | 230 | 0.0 | 2.0 | 0.00 | 0.43 | 0.00 | 97 | 1011.2 |
| 20260504004502 | 56 | 230 | 1.0 | 2.0 | 0.00 | 0.43 | 0.00 | 97 | 1011.3 |
| 20260504003504 | 57 | 230 | 1.0 | 3.0 | 0.00 | 0.43 | 0.00 | 97 | 1011.1 |
| 20260504002503 | 56 | 134 | 0.0 | 2.0 | 0.00 | 0.44 | 0.00 | 97 | 1011.3 |
| 20260504001939 | 57 | 134 | 0.0 | 2.0 | 0.00 | 0.45 | 0.00 | 97 | 1011.3 |
| 20260504000509 | 56 | 134 | 1.0 | 3.0 | 0.00 | 0.45 | 0.00 | 97 | 1011.2 |
| 20260503235510 | 56 | 134 | 0.0 | 3.0 | 0.00 | 0.45 | 0.00 | 97 | 1011.2 |
| 20260503234513 | 56 | 134 | 0.0 | 1.0 | 0.00 | 0.45 | 0.00 | 96 | 1011.2 |
| 20260503233515 | 57 | 134 | 0.0 | 1.0 | 0.00 | 0.45 | 0.00 | 96 | 1011.2 |
| 20260503233422 | 57 | 134 | 1.0 | 3.0 | 0.00 | 0.45 | 0.00 | 96 | 1011.1 |
| 20260503231515 | 57 | 134 | 1.0 | 3.0 | 0.00 | 0.45 | 0.00 | 96 | 1011.0 |
| 20260503230510 | 57 | 134 | 2.0 | 4.0 | 0.00 | 0.45 | 0.00 | 96 | 1011.1 |
| 20260503225503 | 57 | 134 | 1.0 | 4.0 | 0.00 | 0.45 | 0.00 | 96 | 1011.1 |
| 20260503224503 | 57 | 134 | 2.0 | 4.0 | 0.00 | 0.45 | 0.00 | 95 | 1011.2 |
| 20260503223518 | 57 | 134 | 1.0 | 4.0 | 0.00 | 0.45 | 0.00 | 95 | 1011.0 |
| 20260503222503 | 57 | 134 | 1.0 | 4.0 | 0.00 | 0.45 | 0.00 | 95 | 1011.1 |
| 20260503221703 | 57 | 132 | 2.0 | 5.0 | 0.00 | 0.45 | 0.45 | 95 | 1011.1 |
| 20260503221510 | 57 | 134 | 1.0 | 5.0 | 0.00 | 0.45 | 0.00 | 95 | 1011.1 |
| 20260503220515 | 57 | 132 | 1.0 | 3.0 | 0.00 | 0.45 | 0.00 | 95 | 1011.2 |
| 20260503214506 | 57 | 156 | 2.0 | 5.0 | 0.00 | 0.45 | 0.45 | 94 | 1011.1 |
| 20260503213507 | 57 | 122 | 2.0 | 7.0 | 0.00 | 0.45 | 0.45 | 94 | 1011.1 |
| 20260503212609 | 58 | 161 | 4.0 | 8.0 | 0.00 | 0.45 | 0.45 | 94 | 1011.3 |
| 20260503212510 | 58 | 158 | 3.0 | 7.0 | 0.00 | 0.45 | 0.45 | 94 | 1011.2 |
| 20260503210459 | 58 | 205 | 3.0 | 8.0 | 0.00 | 0.45 | 0.45 | 94 | 1011.3 |
| 20260503205456 | 58 | 147 | 3.0 | 8.0 | 0.00 | 0.45 | 0.45 | 94 | 1011.0 |
| 20260503204457 | 58 | 199 | 3.0 | 7.0 | 0.00 | 0.45 | 0.45 | 94 | 1011.0 |
| 20260503203458 | 58 | 119 | 4.0 | 8.0 | 0.00 | 0.45 | 0.45 | 94 | 1010.9 |
| 20260503203113 | 58 | 131 | 3.0 | 7.0 | 0.00 | 0.45 | 0.45 | 94 | 1011.0 |
| 20260503201450 | 58 | 149 | 3.0 | 7.0 | 0.00 | 0.45 | 0.45 | 94 | 1011.0 |
| 20260503200449 | 58 | 141 | 3.0 | 7.0 | 0.00 | 0.45 | 0.45 | 94 | 1011.0 |
| 20260503195446 | 58 | 150 | 2.0 | 6.0 | 0.00 | 0.45 | 0.45 | 94 | 1011.0 |
| 20260503194447 | 58 | 132 | 3.0 | 6.0 | 0.00 | 0.45 | 0.45 | 93 | 1010.8 |
| 20260503193438 | 58 | 138 | 3.0 | 8.0 | 0.00 | 0.45 | 0.45 | 93 | 1010.8 |
| 20260503192441 | 58 | 136 | 3.0 | 6.0 | 0.00 | 0.45 | 0.45 | 93 | 1010.7 |
| 20260503191441 | 59 | 152 | 2.0 | 5.0 | 0.00 | 0.45 | 0.45 | 93 | 1010.7 |
| 20260503190437 | 59 | 144 | 1.0 | 2.0 | 0.00 | 0.45 | 0.45 | 93 | 1010.7 |
| 20260503185432 | 59 | 144 | 0.0 | 4.0 | 0.00 | 0.45 | 0.45 | 92 | 1010.4 |
| 20260503184433 | 59 | 144 | 2.0 | 4.0 | 0.00 | 0.45 | 0.45 | 92 | 1010.3 |
| 20260503184422 | 59 | 142 | 1.0 | 6.0 | 0.00 | 0.45 | 0.45 | 92 | 1010.3 |
| 20260503182437 | 60 | 155 | 1.0 | 4.0 | 0.00 | 0.45 | 0.45 | 91 | 1010.4 |
| 20260503181435 | 60 | 155 | 2.0 | 4.0 | 0.00 | 0.45 | 0.45 | 91 | 1010.3 |
| 20260503180852 | 61 | 135 | 1.0 | 4.0 | 0.00 | 0.46 | 0.45 | 91 | 1010.0 |
| 20260503180803 | 61 | 119 | 1.0 | 4.0 | 0.00 | 0.49 | 0.45 | 92 | 1010.2 |
| 20260503180508 | 60 | 143 | 2.0 | 6.0 | 0.00 | 0.46 | 0.45 | 90 | 1010.2 |
| 20260503173443 | 60 | 134 | 1.0 | 5.0 | 0.00 | 0.50 | 0.45 | 92 | 1010.1 |
| 20260503172449 | 60 | 114 | 3.0 | 6.0 | 0.00 | 0.50 | 0.45 | 92 | 1010.2 |
| 20260503171430 | 60 | 181 | 2.0 | 5.0 | 0.01 | 0.51 | 0.45 | 93 | 1010.0 |
| 20260503171410 | 60 | 173 | 2.0 | 5.0 | 0.02 | 0.52 | 0.45 | 94 | 1010.1 |
| 20260503130956 | 68 | 184 | 5.0 | 12.0 | 0.00 | 0.34 | 0.27 | 75 | 1010.4 |
| 20260503130509 | 67 | 169 | 6.0 | 14.0 | 0.00 | 0.34 | 0.27 | 76 | 1010.2 |
| 20260503110749 | 62 | 227 | 4.0 | 12.0 | 0.00 | 0.34 | 0.27 | 88 | 1010.5 |
| 20260503110646 | 62 | 214 | 4.0 | 8.0 | 0.00 | 0.34 | 0.27 | 91 | 1010.5 |
| 20260503110433 | 62 | 179 | 5.0 | 13.0 | 0.00 | 0.34 | 0.27 | 88 | 1010.5 |
| 20260503090403 | 60 | 115 | 2.0 | 6.0 | 0.00 | 0.19 | 0.12 | 92 | 1010.7 |
| 20260503081408 | 59 | 200 | 3.0 | 7.0 | 0.01 | 0.19 | 0.12 | 92 | 1010.8 |
| 20260503080708 | 58 | 250 | 3.0 | 10.0 | 0.02 | 0.18 | 0.11 | 94 | 1010.8 |
| 20260503080412 | 59 | 180 | 2.0 | 6.0 | 0.02 | 0.19 | 0.12 | 93 | 1010.8 |
| 20260503072354 | 58 | 152 | 2.0 | 7.0 | 0.05 | 0.18 | 0.11 | 95 | 1010.8 |
| 20260503071401 | 58 | 241 | 3.0 | 9.0 | 0.06 | 0.18 | 0.11 | 94 | 1010.7 |
| 20260503071350 | 58 | 175 | 2.0 | 6.0 | 0.07 | 0.17 | 0.10 | 94 | 1010.7 |